STARLINK-32917, 62921

Orbit data source: Space-Track

STARLINK-32917, 62921 is a payload satellite owned by SpaceX/Seattle (US) in LEO that was launched on Sat, 08 Feb 2025 UTC via an FALCON 9 launch vehicle from the Air Force Eastern Test Range (AFETR). Payload-class satellites include a variety of spacecraft equipped with specific instruments for various scientific and technological missions. These include communications satellites like Starlink; space stations such as the ISS; scientific satellites like the Hubble; Earth observation satellites from companies like Planet Labs, Umbra, and HawkEye 360; GPS; miniature CubeSats for education and research; and military/defense satellites.

Loading next visibility...
Identifier
62921, 2025-027Q
Orbit
LEO
Last TLE update
15 hours ago
Origin
Manufacturer
SpaceX/Seattle
Mission
Operational Commercial Communications
Bus & Motor
STARLINK V2M, Unknown motor
Mass
730 kg wet, ~700 kg dry
Launch date (UTC)
2025-02-08 (5 months ago)
Launch vehicle
FALCON 9
Launch site
Air Force Eastern Test Range (AFETR)
Object type
Payload
Rocket body
Debris
Shape & HBR
Box + 2 Pan, 29 m
Radar Cross Section
33.884 m², Large (>1 m²)

Expand to show TLE details & history

TLE from 15 hours ago
0 STARLINK-32917
1 62921U 25027Q   25181.50700667  .00016868  00000-0  62096-3 0  9999
2 62921  42.9965 113.1105 0000394 323.0155  37.0669 15.27585599 22971
Epoch: 2025-06-30T12:10Z
TLE epoch observation values (Epoch: 2025-06-30T12:10:05.376Z)
Latitude
-0.00004°
Longitude
11.77224°
Altitude
482.592 km
Speed
7.626 km/s
True Right ascension
07h 32m 26s
True Declination
0° 00' 00"
Sunlit
Object was in daylight at epoch
Visualization orbit readout
Latitude
-12.42541°
Longitude
-158.16469°
Altitude
485.348 km
Speed
7.624 km/s
Apparent Right ascension
22h 48m 42s
Apparent Declination
-35° 43' 58"
Sunlit
Object is in full shadow
Visualization observer readout
Local Sidereal Time
14:46:33
Azimuth
104.688° ESE
Elevation
-43.717°
Doppler factor
1
Orbital elements
Apogee altitude
485.249 km
Perigee altitude
484.708 km
Semi-major axis
6,863.115 km
Eccentricity
0.00004
Inclination
42.9965°
RAAN
113.1105°
Arg. of periapsis
323.0155°
True anomaly
Unknown
Mean anomaly
37.0669°
Eccentric anomaly
Unknown
Mean motion
3.81734 °/min
Orbital period
94.31 mins
BSTAR
0.00062096
Loading maneuver chart data...
Loading SW <> Apogee altitude chart data...
Loading historical data...
Loading historical data...
Loading historical data...
Loading historical data...
Loading historical data...
Loading historical data...
Loading historical data...

STARLINK-32917 Visibility forecast

Observer location: undefined°, undefined°

Span
Click to sort rows by Start time (UTC) header in descending order
Start Az.
Max El. time (UTC)
Max El. Az.
Max El.
End time (UTC)
End Az.
6 mins2025-07-01 04:20:18.204Z275.035° WNW2025-07-01 04:23:18.204Z194.22° SSW33.837°2025-07-01 04:26:18.204Z137.259° SSE
5 mins2025-07-01 22:56:18.204Z225.952° WSW2025-07-01 22:58:18.204Z140.756° SSE40.434°2025-07-01 23:01:18.204Z77.463° E
5 mins2025-07-02 00:35:18.204Z284.39° WNW2025-07-02 00:37:18.204Z5.822° NNE39.364°2025-07-02 00:40:18.204Z70.396° E
5 mins2025-07-02 02:14:18.204Z296.177° NW2025-07-02 02:16:18.204Z6.531° NNE41.49°2025-07-02 02:19:18.204Z90.455° ESE
|